| time (UTC) | temp F | wind direction | speed MPH | gust MPH | rain 1hr in | rain 24hr in | rain mn in | humidity % | barometer mb |
| 20260506001130 | 29 | 181 | 2.0 | 2.0 | 0.00 | 0.00 | 0.00 | 79 | 978.3 |
| 20260506000230 | 29 | 181 | 2.0 | 3.0 | 0.00 | 0.00 | 0.00 | 78 | 978.3 |
| 20260505235330 | 30 | 175 | 2.0 | 3.0 | 0.00 | 0.00 | 0.00 | 77 | 978.1 |
| 20260505234430 | 29 | 187 | 3.0 | 3.0 | 0.00 | 0.00 | 0.00 | 76 | 978.0 |
| 20260505233530 | 29 | 181 | 3.0 | 3.0 | 0.00 | 0.00 | 0.00 | 71 | 978.0 |
| 20260505232631 | 30 | 160 | 3.0 | 3.0 | 0.00 | 0.00 | 0.00 | 70 | 977.9 |
| 20260505231730 | 30 | 111 | 2.0 | 3.0 | 0.00 | 0.00 | 0.00 | 70 | 977.9 |
| 20260505225930 | 31 | 55 | 2.0 | 2.0 | 0.00 | 0.00 | 0.00 | 69 | 977.8 |
| 20260505225030 | 31 | 142 | 1.0 | 2.0 | 0.00 | 0.00 | 0.00 | 67 | 977.7 |
| 20260505224130 | 32 | 35 | 1.0 | 2.0 | 0.00 | 0.00 | 0.00 | 65 | 977.7 |
| 20260505221430 | 33 | 216 | 2.0 | 2.0 | 0.00 | 0.00 | 0.00 | 65 | 977.5 |
| 20260505220530 | 33 | 181 | 2.0 | 2.0 | 0.00 | 0.00 | 0.00 | 66 | 977.7 |
| 20260505215631 | 33 | 193 | 2.0 | 3.0 | 0.00 | 0.00 | 0.00 | 65 | 977.7 |
| 20260505214730 | 33 | 183 | 2.0 | 2.0 | 0.00 | 0.00 | 0.00 | 65 | 977.6 |
| 20260505213830 | 33 | 207 | 1.0 | 2.0 | 0.00 | 0.00 | 0.00 | 65 | 977.6 |
| 20260505212930 | 34 | 163 | 2.0 | 2.0 | 0.00 | 0.00 | 0.00 | 64 | 977.6 |
| 20260505212030 | 33 | 167 | 2.0 | 2.0 | 0.00 | 0.00 | 0.00 | 66 | 977.6 |
| 20260505211130 | 33 | 181 | 2.0 | 3.0 | 0.00 | 0.00 | 0.00 | 66 | 977.4 |
| 20260505210230 | 33 | 171 | 2.0 | 2.0 | 0.00 | 0.00 | 0.00 | 66 | 977.2 |
| 20260505205330 | 34 | 58 | 2.0 | 4.0 | 0.00 | 0.00 | 0.00 | 64 | 977.2 |
| 20260505204430 | 35 | 287 | 4.0 | 5.0 | 0.00 | 0.00 | 0.00 | 63 | 977.1 |
| 20260505203530 | 35 | 255 | 3.0 | 5.0 | 0.00 | 0.00 | 0.00 | 65 | 976.9 |
| 20260505201730 | 35 | 215 | 3.0 | 4.0 | 0.00 | 0.00 | 0.00 | 67 | 976.9 |
| 20260505200830 | 35 | 247 | 4.0 | 4.0 | 0.00 | 0.00 | 0.00 | 67 | 976.9 |
| 20260505195030 | 35 | 218 | 4.0 | 4.0 | 0.00 | 0.00 | 0.00 | 67 | 976.4 |
| 20260505194130 | 35 | 223 | 3.0 | 4.0 | 0.00 | 0.00 | 0.00 | 66 | 976.4 |
| 20260505192330 | 36 | 237 | 3.0 | 4.0 | 0.00 | 0.00 | 0.00 | 64 | 976.4 |
| 20260505190530 | 38 | 287 | 3.0 | 7.0 | 0.00 | 0.00 | 0.00 | 58 | 976.1 |
| 20260505185631 | 38 | 265 | 3.0 | 7.0 | 0.00 | 0.00 | 0.00 | 58 | 976.2 |
| 20260505184730 | 39 | 270 | 3.0 | 4.0 | 0.00 | 0.00 | 0.00 | 56 | 976.4 |
| 20260505183830 | 40 | 272 | 5.0 | 8.0 | 0.00 | 0.00 | 0.00 | 55 | 976.1 |
| 20260505182930 | 41 | 284 | 5.0 | 8.0 | 0.00 | 0.00 | 0.00 | 53 | 976.0 |
| 20260505175330 | 41 | 287 | 2.0 | 4.0 | 0.00 | 0.00 | 0.00 | 48 | 975.5 |
| 20260505174430 | 40 | 56 | 3.0 | 6.0 | 0.00 | 0.00 | 0.00 | 48 | 975.4 |
| 20260505173530 | 39 | 16 | 6.0 | 10.0 | 0.00 | 0.00 | 0.00 | 48 | 975.4 |
| 20260505172630 | 39 | 349 | 12.0 | 17.0 | 0.00 | 0.00 | 0.00 | 51 | 975.7 |
| 20260505171730 | 40 | 312 | 11.0 | 20.0 | 0.00 | 0.00 | 0.00 | 50 | 975.7 |
| 20260505170830 | 41 | 327 | 17.0 | 21.0 | 0.00 | 0.00 | 0.00 | 49 | 975.7 |
| 20260505165930 | 41 | 330 | 15.0 | 21.0 | 0.00 | 0.00 | 0.00 | 51 | 975.6 |
| 20260505164130 | 42 | 341 | 14.0 | 23.0 | 0.00 | 0.00 | 0.00 | 49 | 975.5 |
| 20260505163230 | 43 | 312 | 11.0 | 17.0 | 0.00 | 0.00 | 0.00 | 43 | 975.4 |
| 20260505162330 | 44 | 305 | 12.0 | 17.0 | 0.00 | 0.00 | 0.00 | 40 | 975.3 |
| 20260505161430 | 45 | 295 | 8.0 | 13.0 | 0.00 | 0.00 | 0.00 | 38 | 975.2 |
| 20260505160530 | 45 | 303 | 7.0 | 12.0 | 0.00 | 0.00 | 0.00 | 38 | 975.1 |
| 20260505152030 | 44 | 227 | 4.0 | 6.0 | 0.00 | 0.00 | 0.00 | 42 | 975.1 |
| 20260505151130 | 43 | 201 | 4.0 | 7.0 | 0.00 | 0.00 | 0.00 | 44 | 975.0 |
| 20260505150230 | 43 | 241 | 3.0 | 5.0 | 0.00 | 0.00 | 0.00 | 45 | 975.1 |
| 20260505124731 | 43 | 261 | 8.0 | 18.0 | 0.00 | 0.00 | 0.00 | 46 | 974.6 |
| 20260505123830 | 42 | 251 | 11.0 | 18.0 | 0.00 | 0.00 | 0.00 | 48 | 974.8 |
| 20260505122930 | 43 | 278 | 9.0 | 15.0 | 0.00 | 0.00 | 0.00 | 45 | 974.7 |
| 20260505122030 | 44 | 265 | 8.0 | 14.0 | 0.00 | 0.00 | 0.00 | 42 | 974.5 |
| 20260505121131 | 45 | 309 | 7.0 | 9.0 | 0.00 | 0.00 | 0.00 | 37 | 974.3 |
| 20260505120230 | 45 | 322 | 11.0 | 15.0 | 0.00 | 0.00 | 0.00 | 31 | 974.2 |
| 20260505115330 | 45 | 317 | 12.0 | 16.0 | 0.00 | 0.00 | 0.00 | 32 | 974.1 |
| 20260505114430 | 46 | 305 | 13.0 | 18.0 | 0.00 | 0.00 | 0.00 | 35 | 973.8 |
| 20260505113530 | 46 | 308 | 10.0 | 17.0 | 0.00 | 0.00 | 0.00 | 35 | 974.0 |
| 20260505112631 | 45 | 322 | 14.0 | 22.0 | 0.00 | 0.00 | 0.00 | 36 | 974.0 |
| 20260505111730 | 46 | 313 | 11.0 | 16.0 | 0.00 | 0.00 | 0.00 | 36 | 973.9 |
| 20260505110830 | 45 | 292 | 15.0 | 16.0 | 0.00 | 0.00 | 0.00 | 35 | 973.9 |
| 20260505100530 | 42 | 307 | 11.0 | 12.0 | 0.00 | 0.00 | 0.00 | 45 | 973.9 |
| 20260505095630 | 43 | 318 | 9.0 | 17.0 | 0.00 | 0.00 | 0.00 | 44 | 973.9 |
| 20260505094730 | 46 | 301 | 10.0 | 13.0 | 0.00 | 0.00 | 0.00 | 40 | 973.7 |
| 20260505093830 | 44 | 281 | 7.0 | 10.0 | 0.00 | 0.00 | 0.00 | 43 | 973.9 |
| 20260505092030 | 45 | 301 | 6.0 | 11.0 | 0.00 | 0.00 | 0.00 | 44 | 973.9 |
| 20260505091131 | 44 | 317 | 8.0 | 12.0 | 0.00 | 0.00 | 0.00 | 43 | 973.7 |
| 20260505090230 | 44 | 311 | 9.0 | 14.0 | 0.00 | 0.00 | 0.00 | 42 | 973.5 |
| 20260505085330 | 43 | 328 | 12.0 | 14.0 | 0.00 | 0.00 | 0.00 | 40 | 973.6 |
| 20260505084430 | 43 | 321 | 11.0 | 16.0 | 0.00 | 0.00 | 0.00 | 43 | 973.6 |
| 20260505083530 | 43 | 332 | 11.0 | 15.0 | 0.00 | 0.00 | 0.00 | 42 | 973.4 |
| 20260505082631 | 43 | 327 | 9.0 | 15.0 | 0.00 | 0.00 | 0.00 | 44 | 973.4 |
| 20260505081730 | 43 | 329 | 10.0 | 16.0 | 0.00 | 0.00 | 0.00 | 44 | 973.3 |
| 20260505080830 | 44 | 319 | 10.0 | 16.0 | 0.00 | 0.00 | 0.00 | 48 | 973.1 |
| 20260505075930 | 43 | 338 | 9.0 | 15.0 | 0.00 | 0.00 | 0.00 | 49 | 973.2 |
| 20260505075030 | 43 | 316 | 8.0 | 11.0 | 0.00 | 0.00 | 0.00 | 53 | 973.2 |
| 20260505074130 | 42 | 322 | 8.0 | 12.0 | 0.00 | 0.00 | 0.00 | 54 | 973.1 |
| 20260505073230 | 40 | 311 | 7.0 | 10.0 | 0.00 | 0.00 | 0.00 | 56 | 973.1 |
| 20260505072330 | 40 | 315 | 10.0 | 13.0 | 0.00 | 0.00 | 0.00 | 57 | 973.0 |
| 20260505071430 | 41 | 312 | 9.0 | 13.0 | 0.00 | 0.00 | 0.00 | 56 | 972.9 |
| 20260505070530 | 42 | 313 | 7.0 | 10.0 | 0.00 | 0.00 | 0.00 | 56 | 972.7 |
| 20260505065631 | 42 | 319 | 7.0 | 11.0 | 0.00 | 0.00 | 0.00 | 58 | 972.7 |
| 20260505064730 | 42 | 300 | 5.0 | 7.0 | 0.00 | 0.00 | 0.00 | 59 | 972.8 |
| 20260505063830 | 42 | 305 | 4.0 | 5.0 | 0.00 | 0.00 | 0.00 | 61 | 972.8 |
| 20260505062930 | 42 | 270 | 4.0 | 5.0 | 0.00 | 0.00 | 0.00 | 62 | 972.9 |
| 20260505061130 | 38 | 268 | 4.0 | 5.0 | 0.00 | 0.00 | 0.00 | 68 | 972.6 |
| 20260505060230 | 36 | 262 | 3.0 | 5.0 | 0.00 | 0.00 | 0.00 | 70 | 972.4 |
| 20260505055330 | 35 | 216 | 4.0 | 6.0 | 0.00 | 0.00 | 0.00 | 71 | 972.4 |
| 20260505053531 | 36 | 235 | 4.0 | 6.0 | 0.00 | 0.00 | 0.00 | 69 | 972.5 |
| 20260505050830 | 41 | 229 | 3.0 | 4.0 | 0.00 | 0.00 | 0.00 | 63 | 972.1 |
| 20260505041430 | 36 | 282 | 4.0 | 6.0 | 0.00 | 0.00 | 0.00 | 69 | 971.8 |
| 20260505040531 | 36 | 296 | 3.0 | 5.0 | 0.00 | 0.00 | 0.00 | 70 | 971.8 |
| 20260505035632 | 35 | 296 | 5.0 | 6.0 | 0.00 | 0.00 | 0.00 | 70 | 971.8 |
| 20260505034730 | 35 | 290 | 4.0 | 5.0 | 0.00 | 0.00 | 0.00 | 72 | 971.5 |
| 20260505033831 | 35 | 305 | 3.0 | 5.0 | 0.00 | 0.00 | 0.00 | 73 | 971.5 |
| 20260505032930 | 34 | 286 | 3.0 | 4.0 | 0.00 | 0.00 | 0.00 | 74 | 971.5 |
| 20260505031131 | 32 | 242 | 5.0 | 6.0 | 0.00 | 0.00 | 0.00 | 77 | 971.4 |
| 20260505030230 | 32 | 231 | 4.0 | 5.0 | 0.00 | 0.00 | 0.00 | 77 | 971.5 |
| 20260505024431 | 32 | 244 | 3.0 | 4.0 | 0.00 | 0.00 | 0.00 | 76 | 971.4 |
| 20260505022631 | 33 | 313 | 3.0 | 4.0 | 0.00 | 0.00 | 0.00 | 74 | 971.3 |
| 20260505021731 | 32 | 335 | 3.0 | 5.0 | 0.00 | 0.00 | 0.00 | 76 | 971.2 |
| 20260505020830 | 33 | 318 | 4.0 | 4.0 | 0.00 | 0.00 | 0.00 | 76 | 971.0 |
| 20260505015930 | 33 | 325 | 4.0 | 7.0 | 0.00 | 0.00 | 0.00 | 77 | 971.1 |
| 20260505015030 | 33 | 325 | 6.0 | 11.0 | 0.00 | 0.00 | 0.00 | 78 | 971.0 |
| 20260505014130 | 34 | 319 | 4.0 | 8.0 | 0.00 | 0.00 | 0.00 | 81 | 971.0 |
| 20260505013230 | 34 | 267 | 2.0 | 4.0 | 0.00 | 0.00 | 0.00 | 84 | 970.9 |
| 20260505012331 | 34 | 260 | 2.0 | 3.0 | 0.00 | 0.00 | 0.00 | 84 | 970.8 |
| 20260505011430 | 34 | 280 | 3.0 | 4.0 | 0.00 | 0.00 | 0.00 | 84 | 970.7 |
| 20260505010530 | 34 | 214 | 4.0 | 6.0 | 0.00 | 0.00 | 0.00 | 89 | 970.7 |
| 20260505005632 | 34 | 192 | 4.0 | 6.0 | 0.00 | 0.00 | 0.00 | 89 | 970.7 |
| 20260505004731 | 34 | 198 | 5.0 | 6.0 | 0.00 | 0.00 | 0.00 | 90 | 970.7 |
| 20260505003831 | 34 | 181 | 4.0 | 6.0 | 0.00 | 0.00 | 0.00 | 90 | 970.7 |
| 20260505002931 | 34 | 215 | 4.0 | 4.0 | 0.00 | 0.00 | 0.00 | 89 | 970.6 |
| 20260505002030 | 34 | 217 | 4.0 | 5.0 | 0.00 | 0.00 | 0.00 | 89 | 970.4 |